Regional Weather Roundup
Issued by NWS Nashville, TN

Home | Current Version | Previous Version | Text Only | Print | Product List | Glossary On
Versions: 1 2 3 4 5 6 7 8 9 10 11 12 13 14 15 16 17 18 19 20 21 22 23 24 25 26 27 28
000
ASUS44 KOHX 291210
RWROHX
MIDDLE TENNESSEE HOURLY WEATHER ROUNDUP
NATIONAL WEATHER SERVICE NASHVILLE TN
700 AM CDT SUN MAY 29 2016

NOTE: "FAIR" INDICATES FEW OR NO CLOUDS BELOW 12,000 FEET WITH
NO SIGNIFICANT WEATHER AND/OR OBSTRUCTIONS TO VISIBILITY.

* THESE REPORTS ARE NOT UNDER NWS QUALITY CONTROL AND MAY NOT
  REPORT WEATHER SUCH AS PRECIPITATION AND FOG.


TNZ005>011-023>034-057-059-062>066-078-080-291300
...NORTHERN MIDDLE TENNESSEE...

CITY           SKY/WX    TMP DP  RH WIND       PRES   REMARKS
CLARKSVILLE    SUNNY     67  64  90 CALM      30.12R
CROSSVILLE     CLOUDY    65  61  87 CALM      30.19R
DICKSON        SUNNY     70  63  78 SW6       30.12R
NASHVILLE      MOSUNNY   67  64  90 CALM      30.13R
SMYRNA         SUNNY     65  65 100 SE3       30.14R
SPARTA         SUNNY     64  63  94 CALM      30.13S
$$
TNZ056-058-060-061-075>077-079-093>097-291300
...SOUTHERN MIDDLE TENNESSEE...

CITY           SKY/WX    TMP DP  RH WIND       PRES   REMARKS
COLUMBIA       SUNNY    N/A N/A N/A CALM      30.12R
FAYETTEVILLE   SUNNY     68  64  88 CALM      30.15R
LEWISBURG      SUNNY     65  63  93 CALM      30.12S
MCMINNVILLE    SUNNY     64  64 100 CALM      30.15S
SHELBYVILLE    SUNNY     68  64  88 E5        30.15R
TULLAHOMA      SUNNY     64  64 100 CALM      30.16R
WINCHESTER     SUNNY     66  61  82 CALM      30.15R
$$


...KEY TO REMARKS...
VSB - VISIBILITY IN MILES
WCI - WIND CHILL INDEX
HX  - HEAT INDEX





USA.gov is the U.S. government's official web portal to all federal, state and local government web resources and services.